Weather in Sasykoli

Russia / Astrakhan Oblast     47°32′56″N   46°59′59″E
temp.,
°C
wind,
m/s
gust,
m/s
humid.,
%
clouds,
%
prec.,
mm/h
press.,
hPa
HPBL,
m
1 august, sun
sun101:00+25se33305 0.0 101131
04:00+23s335310 0.0 101141
07:00+25se23500 0.0 101286
10:00+31sse23300 0.0 1012706
13:00+34sse44260 0.0 10111591
16:00+35s34264 0.0 10101778
19:00+35s13265 0.0 1010755
22:00+30se223412 0.0 101013
2 august, mon
mon201:00+29ssw463969 0.1 1011149
04:00+26ssw33445 0.1 101125
07:00+27ssw2341100 0.0 101278
10:00+32ssw3325100 0.0 1012456
13:00+34sse4420100 0.0 1012718
16:00+37e27156 0.0 10103099
19:00+36sse221683 0.0 101091
22:00+30se442289 0.0 101140
3 august, tue
tue301:00+27s34285 0.0 101035
04:00+26s22345 0.0 101113
07:00+28wsw11315 0.0 101221
10:00+35s33175 0.0 1011624
13:00+39s46120 0.0 10113080
16:00+40sse46110 0.0 10093507
19:00+37s34138 0.0 1009148
22:00+31s45180 0.0 101046
4 august, wed
wed401:00+28ssw45220 0.0 101060
04:00+27sw34240 0.0 101033
07:00+28ssw35255 0.0 101093
10:00+36ssw451529 0.0 1010635
13:00+39ssw4611100 0.0 10093200
16:00+39wnw8718100 0.0 10091709
19:00+35nw462410 0.0 1010326
22:00+30nw46305 0.0 101178
5 august, thu
thu501:00+28n41141100 0.0 1012281
04:00+26nnw4549100 0.0 101298
07:00+27nnw4749100 0.0 1013287
10:00+24nw2363100 1.6 1014288
13:00+31n5538100 0.0 10141546
16:00+34n452878 0.0 10132818
19:00+32n65250 0.0 10122114
22:00+27n46295 0.0 101478